GEFSSE_con_prob3kmehi_198.txt.gz
EHI
1 1 2 1 0 1 2 3 3 3 2 1 0 1 2 4 5 6 6 6 5 2 1 1 3 5 5 3 1 0 0 0 0 0 0 0 0 0 0 0 0 0 0
1 1 1 1 0 0 1 2 2 2 1 0 0 1 2 3 4 4 5 5 4 1 0 1 2 3 3 2 0 0 0 0 0 0 0 0 0 0 0 0 0 0 0
1 0 0 0 0 0 0 1 1 1 0 0 0 0 1 3 3 3 3 3 2 1 0 1 1 1 1 0 0 0 0 0 0 0 0 0 0 0 0 0 0 0 0
0 0 0 0 0 0 0 0 0 0 0 0 0 0 1 2 2 2 1 1 1 0 0 0 0 0 0 0 0 0 0 0 0 0 0 0 0 0 0 0 0 0 0
1 1 0 0 0 0 0 0 0 0 0 0 0 0 0 1 1 1 0 0 0 0 0 0 0 0 0 0 0 0 0 1 1 0 0 0 0 0 1 1 1 0 0
2 2 1 0 0 0 0 0 0 0 0 0 0 0 0 0 0 0 0 0 0 0 0 0 0 0 0 0 0 1 2 3 2 1 0 0 0 1 1 2 1 0 0
4 3 1 0 0 0 0 0 0 0 0 0 0 0 0 0 0 0 0 0 0 0 0 0 0 0 0 0 0 2 5 6 4 1 0 0 1 1 1 1 1 0 0
7 5 2 0 0 0 0 0 0 0 1 1 1 1 0 0 0 0 0 0 0 0 0 0 0 0 0 0 0 2 7 8 4 1 1 0 1 1 1 0 0 0 0
9 6 2 0 0 0 0 0 0 0 0 1 1 1 0 0 0 0 0 0 0 0 0 0 0 0 0 0 1 3 8 9 4 0 0 0 0 0 0 0 0 0 0
9 6 3 2 1 0 0 0 0 0 0 0 1 1 0 0 0 0 0 0 0 0 0 0 0 0 0 1 2 3 7 8 4 1 0 0 0 0 0 0 0 0 0
7 7 6 5 3 1 0 0 0 0 0 0 0 0 0 0 0 0 1 1 1 0 0 0 0 0 1 1 3 6 7 5 3 2 1 0 0 0 0 0 0 0 0
6 8 9 8 6 3 1 1 1 0 0 0 1 1 1 0 1 2 2 2 2 1 0 0 0 0 0 1 4 7 7 5 2 2 1 1 1 0 0 0 0 0 0
6 9 11 11 9 6 4 3 2 2 2 2 2 2 1 1 3 4 3 3 2 1 1 1 1 1 0 1 3 5 5 3 2 1 1 2 1 0 0 0 0 0 0
11 12 15 15 12 11 9 5 3 3 4 4 4 3 1 1 3 4 4 3 2 3 3 4 3 2 0 0 1 3 3 3 1 1 2 3 2 0 0 0 0 0 0
19 19 21 19 15 13 11 8 6 5 5 5 5 3 1 1 2 4 4 3 2 3 4 4 2 1 0 0 1 2 3 3 1 2 3 4 3 1 0 0 1 1 0
29 28 28 25 20 15 10 7 7 7 6 7 6 5 3 2 4 5 3 2 2 3 4 3 2 1 0 0 1 1 3 3 2 3 5 5 4 3 1 1 2 2 1
41 39 34 28 24 17 9 6 6 7 7 8 10 9 6 5 6 5 3 2 2 3 4 4 4 4 1 0 1 1 3 6 6 6 7 7 6 5 3 2 3 3 3
55 50 39 31 28 21 11 8 8 9 11 12 14 16 13 9 7 5 3 3 4 3 2 2 5 5 3 1 1 1 4 8 9 7 8 9 9 9 7 5 4 3 3
65 58 47 39 35 27 18 13 12 14 16 16 18 24 23 15 10 7 6 8 8 5 2 3 5 6 3 1 0 1 4 7 9 9 8 8 10 12 12 9 6 4 4
73 66 57 51 46 37 27 21 19 17 18 18 21 30 31 22 14 9 10 14 14 9 6 6 8 7 5 3 2 1 2 6 9 12 12 8 8 11 15 15 12 8 6
79 74 66 60 56 47 36 28 25 22 19 17 22 34 38 29 20 13 12 17 17 14 13 13 11 9 8 8 5 2 1 4 8 13 17 14 9 9 15 20 20 16 13
85 80 71 66 63 56 44 34 30 29 24 20 26 39 41 34 27 21 19 21 21 20 19 17 16 14 11 11 9 5 2 3 5 9 16 18 13 12 15 18 22 23 22
89 83 75 72 71 64 53 42 38 37 33 31 37 44 44 38 32 29 28 28 28 27 23 20 19 18 15 12 11 8 4 2 2 5 9 13 15 18 16 13 16 22 25
88 86 82 80 78 72 61 51 48 47 43 42 47 50 48 42 35 32 33 34 34 31 27 21 18 19 17 13 12 11 8 5 2 2 4 6 11 17 16 11 11 18 23
88 88 87 86 83 78 69 61 57 53 48 46 48 50 49 43 35 32 35 37 35 32 28 24 21 20 17 15 13 14 14 11 6 3 1 2 5 10 13 13 13 17 21
88 88 88 87 86 83 76 66 60 56 50 47 45 46 46 41 35 32 35 38 36 31 28 27 27 23 19 17 14 16 17 16 11 4 1 0 2 5 11 15 16 18 21

GEFSSE_con_prob3kmehi_204.txt.gz
EHI
1 4 6 6 5 3 2 2 1 0 0 0 0 0 0 0 0 0 0 1 3 4 4 4 3 1 1 1 2 2 1 0 0 0 0 0 0 0 0 0 0 0 0
2 4 6 6 4 3 1 1 0 0 0 0 0 0 0 0 0 1 1 2 3 4 5 5 3 1 1 1 1 1 0 0 0 0 0 0 0 0 0 0 0 0 0
3 3 4 4 3 2 0 0 0 0 0 0 0 0 0 0 1 2 3 3 4 4 5 5 2 1 1 1 0 0 0 0 0 0 0 0 0 0 0 0 0 0 0
3 3 3 3 3 2 1 0 0 0 0 0 0 0 0 1 2 2 2 3 4 5 4 2 1 0 0 0 0 1 0 0 0 0 0 0 0 0 0 0 0 0 0
2 2 2 3 3 2 1 0 0 0 0 0 0 0 0 1 2 1 1 1 3 3 2 1 0 0 0 0 0 0 0 0 0 0 0 0 0 0 0 0 0 0 0
2 1 1 3 3 2 1 0 0 0 0 0 0 1 1 1 1 1 0 0 1 1 1 0 0 0 0 0 0 1 1 0 0 0 0 0 0 0 0 0 0 0 0
2 1 1 2 2 1 0 0 0 0 0 0 0 1 1 1 1 1 1 1 1 1 1 0 0 0 0 0 0 1 2 1 0 0 0 0 0 0 0 0 0 0 0
2 2 1 1 1 0 0 0 0 0 0 0 0 1 2 2 1 1 1 2 2 2 1 0 0 0 0 0 0 2 3 1 0 0 0 0 0 0 0 0 0 0 0
2 2 1 1 0 0 0 0 0 0 0 0 0 1 3 3 3 2 2 1 2 2 1 0 0 1 1 1 2 4 5 2 0 0 0 0 1 1 0 0 0 0 0
3 3 2 1 0 0 0 0 0 0 0 0 1 2 2 2 2 2 1 0 1 1 0 0 0 1 1 2 4 6 5 3 0 0 0 1 2 1 0 0 0 0 0
5 4 3 2 1 0 0 0 0 0 0 0 1 1 1 1 1 1 0 0 0 0 0 0 0 1 1 2 5 5 3 1 0 0 1 3 3 2 0 0 0 0 0
7 5 3 3 2 1 0 0 0 0 0 0 0 0 0 0 0 0 0 0 0 0 0 0 0 0 0 1 3 2 1 0 0 0 2 5 5 3 1 0 0 0 0
8 6 4 3 3 1 0 0 0 0 0 0 0 0 0 0 0 0 0 0 0 0 0 0 0 0 0 0 1 1 0 0 0 0 2 5 5 4 3 1 0 0 0
10 8 6 4 3 2 1 1 1 1 0 0 0 0 0 0 0 0 0 0 0 0 0 0 0 0 0 0 0 0 0 0 0 0 2 5 6 6 4 2 1 0 0
15 12 8 6 4 4 2 2 2 1 1 0 0 0 0 0 0 0 0 0 0 0 0 0 0 0 0 0 0 0 0 0 0 0 1 4 6 7 6 4 3 2 1
22 18 14 10 7 6 5 4 3 3 2 1 1 1 1 0 0 0 0 0 0 0 0 0 0 0 0 0 0 0 0 0 0 0 1 3 4 6 7 7 6 5 3
29 26 21 16 12 9 7 7 5 4 3 3 2 2 2 1 0 0 0 0 0 0 0 0 0 0 0 0 0 0 0 0 0 0 0 1 2 4 7 9 9 7 5
35 33 29 24 18 13 11 9 7 5 4 3 3 4 4 2 1 0 0 0 0 0 0 0 0 0 0 0 0 0 0 0 0 0 0 0 1 2 5 7 9 8 7
39 38 35 30 25 20 14 10 8 6 4 4 5 6 6 4 2 1 1 0 0 0 0 0 0 0 0 0 0 0 0 0 0 0 0 0 0 1 2 4 7 9 9
45 44 41 35 29 24 19 13 9 6 5 5 5 6 5 4 4 3 2 0 0 0 0 0 0 0 0 0 0 0 0 0 0 0 0 0 0 0 0 1 4 7 8
54 53 47 39 32 27 22 16 11 6 6 6 6 5 4 4 5 5 2 0 0 0 0 0 0 0 0 0 0 0 0 0 0 0 0 0 0 0 0 1 2 3 4
64 63 56 46 38 31 24 17 10 6 5 7 6 5 4 5 5 5 3 1 0 0 0 0 0 0 0 0 0 0 0 0 0 0 0 0 0 0 0 0 1 1 1
71 70 64 54 44 36 29 23 16 11 8 6 5 4 5 6 6 6 4 2 0 0 0 0 0 0 0 0 0 0 0 0 0 0 0 0 0 0 0 0 0 0 0
73 71 67 59 49 41 37 34 29 22 14 7 4 3 4 6 9 10 7 3 2 1 1 0 0 0 0 0 0 0 0 0 0 0 0 0 0 0 0 0 0 0 0
76 73 67 61 53 47 44 41 38 30 20 11 7 5 6 8 11 11 9 7 6 6 3 1 1 0 0 0 0 0 0 0 0 0 0 0 0 0 0 0 0 0 0
80 76 70 63 57 52 48 44 40 34 24 15 10 7 8 9 11 11 10 11 12 10 5 2 2 1 0 0 0 0 0 0 0 0 0 0 0 0 0 0 0 0 0

GEFSSE_con_prob3kmehi_210.txt.gz
EHI
0 0 1 2 4 4 4 3 3 4 5 6 5 4 3 2 3 3 2 1 0 0 1 3 3 1 0 0 1 1 0 0 0 0 0 0 0 1 1 1 1 1 2
0 0 2 4 5 5 4 3 3 4 4 4 3 3 2 2 1 1 1 0 0 0 1 2 1 0 0 1 1 1 0 0 0 0 0 0 0 0 1 1 2 2 2
0 0 2 5 6 5 4 3 3 2 2 1 1 1 1 1 0 0 0 0 0 0 0 0 0 0 0 1 1 1 0 0 0 0 0 0 0 0 0 1 2 2 1
0 1 2 5 6 4 3 3 2 1 1 0 0 0 0 0 0 0 0 0 0 0 0 0 0 0 0 0 0 0 0 0 0 0 0 0 0 0 0 1 1 1 0
1 2 3 5 5 4 3 3 3 2 2 1 1 0 0 0 0 0 0 0 0 0 0 0 0 0 0 0 0 0 0 0 0 0 0 0 0 0 0 0 0 0 0
3 3 4 5 5 4 3 4 5 4 3 2 1 0 0 0 0 0 0 0 0 0 0 0 0 0 0 0 0 0 0 0 0 0 0 0 0 0 0 0 0 0 0
3 3 3 4 4 5 5 4 4 3 3 1 1 0 0 0 0 0 0 0 0 0 0 0 0 0 0 0 0 0 1 1 0 0 0 0 0 0 0 0 0 0 0
3 3 3 3 4 5 6 4 2 1 1 1 0 0 0 0 0 0 0 0 0 0 0 0 0 0 0 0 0 1 3 2 1 0 0 0 0 0 0 0 0 0 0
3 3 3 3 4 5 5 4 2 1 1 0 0 0 1 1 1 1 1 0 0 0 0 0 0 0 0 0 0 1 3 3 1 0 0 0 0 0 0 0 0 0 0
1 2 3 3 3 3 3 3 3 2 1 0 0 0 1 2 1 1 0 0 0 0 0 0 0 0 0 1 1 1 2 2 1 0 0 0 0 0 0 0 0 0 0
1 1 2 2 1 1 1 2 3 3 2 1 0 0 0 1 1 0 0 0 0 0 0 0 0 0 0 1 2 1 1 1 0 0 0 0 1 1 0 0 0 0 0
1 1 1 1 0 0 0 1 1 2 2 1 0 0 0 0 0 0 0 0 0 0 0 0 0 0 0 1 2 1 0 0 0 0 0 1 2 2 1 0 0 0 1
1 0 0 0 0 0 0 0 0 1 1 0 0 0 0 0 0 0 0 0 0 0 0 0 0 0 0 0 0 0 0 0 0 0 0 1 3 4 3 1 0 0 1
0 0 0 0 0 0 0 0 0 0 0 0 1 1 0 0 0 0 0 0 0 0 0 0 0 0 0 0 0 0 0 0 0 0 0 2 4 5 4 2 0 0 1
0 0 0 0 0 0 1 1 0 0 0 0 1 1 0 0 0 0 0 0 0 0 0 0 0 0 0 0 0 0 0 0 0 0 0 2 5 6 5 3 1 0 0
0 0 0 0 0 0 1 1 0 0 0 0 1 1 0 0 0 0 0 0 0 0 0 0 0 0 0 0 0 0 0 0 0 0 0 1 3 5 6 5 3 1 1
0 0 0 0 0 0 1 1 0 0 0 0 0 1 0 0 0 0 0 0 0 0 0 0 0 0 0 0 0 0 0 0 0 0 0 0 1 3 5 5 4 2 2
3 2 1 1 0 0 0 0 0 0 0 0 0 0 0 0 0 0 0 0 0 0 0 0 0 0 0 0 0 0 0 0 0 0 0 0 0 1 1 2 3 3 2
10 8 5 3 2 1 0 0 0 0 0 0 0 0 0 1 1 1 0 0 0 0 0 0 0 0 0 0 0 0 0 0 0 0 0 0 0 0 0 0 1 1 1
14 12 9 7 5 4 3 3 2 1 1 0 0 0 1 1 0 1 1 1 0 0 0 0 0 0 0 0 0 0 0 0 0 0 0 0 0 0 0 0 0 0 0
16 14 12 10 9 8 7 6 4 3 1 0 0 0 0 0 0 1 1 1 0 0 0 0 0 0 0 0 0 0 0 0 0 0 0 0 0 0 0 1 0 0 0
15 16 16 14 12 12 11 8 5 3 1 1 0 0 0 0 0 0 0 0 0 0 0 0 0 0 0 0 0 0 0 0 0 0 0 0 0 0 0 0 0 0 0
17 18 20 19 17 15 13 11 8 5 3 2 1 0 0 0 0 0 0 1 1 1 0 0 0 0 0 0 0 0 0 0 0 0 0 0 0 0 0 0 0 0 0
23 22 22 21 20 17 16 15 13 9 5 3 1 0 0 0 0 0 1 2 2 1 0 0 0 0 0 0 1 1 0 0 0 0 0 0 0 0 0 0 0 0 0
28 26 24 21 20 19 18 18 16 11 6 3 2 1 0 0 0 0 1 1 2 1 0 0 0 0 0 0 1 2 1 0 0 0 0 0 0 0 0 0 0 0 0
30 29 26 22 20 19 19 18 15 11 6 4 3 2 1 0 0 0 1 1 1 0 0 0 0 0 0 0 1 2 2 1 0 0 0 0 0 0 0 0 0 0 0

GEFSSE_con_prob3kmehi_216.txt.gz
EHI
0 1 2 3 2 1 1 0 0 0 0 0 0 0 0 0 0 0 0 0 0 0 1 2 3 3 3 2 1 1 0 0 0 0 0 0 0 0 0 0 0 0 0
0 1 2 3 3 2 1 0 0 0 0 0 0 0 0 0 0 0 0 0 0 1 1 2 3 3 3 2 1 1 1 0 0 0 0 0 0 0 0 0 0 0 0
0 0 1 3 3 3 2 0 0 0 0 0 0 0 0 0 0 0 0 0 1 2 2 3 3 3 3 3 2 2 1 0 0 0 0 0 0 0 0 0 0 0 0
0 0 1 3 4 3 2 1 0 0 0 0 0 0 0 0 0 0 0 0 1 2 3 2 2 2 2 2 2 1 0 0 0 0 0 0 0 0 0 0 0 0 0
0 0 1 4 5 4 3 1 0 0 0 0 0 0 0 1 1 0 0 0 1 2 1 1 1 1 1 1 1 0 0 0 0 0 0 0 0 0 0 0 0 0 0
0 0 2 5 6 5 4 2 1 0 0 0 0 0 1 2 1 0 0 0 1 1 0 0 0 0 0 0 0 0 0 0 0 0 0 0 0 0 0 0 0 0 0
0 0 1 4 5 5 5 4 2 1 1 0 1 1 1 2 1 0 0 0 0 0 0 0 0 0 0 0 0 1 1 1 0 0 0 0 0 0 0 0 0 0 0
0 0 1 3 5 5 6 5 3 2 1 1 1 2 2 1 0 0 0 0 0 0 0 0 0 0 0 0 0 1 2 1 0 0 0 0 0 0 0 0 0 0 0
0 0 1 2 4 4 4 4 2 1 1 1 1 2 1 0 0 0 0 0 0 0 0 0 0 0 0 0 0 1 2 2 1 0 0 0 0 0 0 0 0 0 0
0 0 0 1 2 2 2 2 2 2 1 1 0 0 0 0 0 0 0 0 0 0 0 0 0 0 0 1 1 2 2 2 1 0 0 0 0 0 0 0 0 0 0
0 0 0 0 1 1 1 1 2 2 1 0 0 0 0 0 0 0 0 0 0 0 0 0 1 1 1 1 2 3 2 2 1 0 0 1 0 0 0 0 0 0 0
0 0 0 0 0 0 0 0 1 1 0 0 0 0 0 0 0 0 0 0 0 0 0 0 1 2 1 1 2 3 2 1 0 0 1 3 2 0 0 0 0 0 0
0 0 0 0 0 0 0 0 0 0 0 0 1 0 0 0 0 0 0 0 0 0 0 0 0 1 1 0 1 1 1 0 0 0 1 3 3 1 0 0 0 0 0
0 0 0 0 1 1 0 0 1 0 0 0 0 0 1 1 0 0 0 0 0 0 0 0 0 0 0 0 0 0 0 0 0 0 1 3 3 1 0 0 0 0 0
0 0 0 1 2 2 1 1 1 0 0 0 0 1 2 2 1 0 0 0 0 0 0 0 0 0 0 0 0 0 0 0 0 0 1 2 2 1 0 0 0 0 0
1 0 1 2 4 4 3 2 1 0 0 0 0 1 2 2 1 1 0 0 0 0 0 0 0 0 0 0 0 0 0 0 0 0 0 1 2 1 0 0 0 0 0
1 1 1 3 5 6 5 3 1 0 0 0 1 3 3 2 2 2 1 0 0 0 0 0 0 0 0 0 0 0 0 0 0 0 0 0 1 1 0 0 0 0 0
1 2 3 4 5 7 6 5 2 1 1 2 2 4 6 5 4 3 2 0 0 0 0 0 0 0 0 0 0 0 0 1 0 0 0 0 1 0 0 2 2 2 1
4 7 8 7 7 7 8 7 5 3 4 5 5 5 7 6 5 4 4 2 1 1 1 0 0 1 1 1 0 0 1 1 0 0 0 0 1 0 0 2 4 3 2
11 14 16 14 12 11 10 9 7 7 8 9 8 6 5 5 4 3 4 3 3 2 1 1 1 2 2 1 0 1 2 2 1 0 0 0 1 0 0 1 2 2 2
22 24 25 23 21 18 14 12 10 10 10 10 9 7 5 4 3 3 4 5 5 4 3 3 3 3 2 2 1 1 2 2 1 1 0 0 0 0 0 0 0 1 2
34 33 32 31 28 24 19 15 13 12 11 9 8 7 5 3 3 5 7 8 7 7 6 5 5 5 3 2 3 3 2 1 1 1 1 1 1 0 0 0 0 0 1
41 38 35 34 33 30 25 19 16 16 15 12 9 6 5 4 5 6 8 9 9 9 8 8 7 7 5 4 4 5 3 2 1 1 2 3 2 1 0 0 0 1 1
40 38 37 36 36 36 32 24 20 21 19 14 10 7 6 6 7 8 9 10 9 8 9 9 8 9 8 7 7 7 6 5 4 3 3 4 3 2 1 0 1 3 4
34 35 37 39 43 43 39 32 26 24 20 15 12 11 9 9 9 8 9 10 10 9 9 10 10 9 9 10 10 10 9 7 6 5 4 4 4 2 1 1 2 3 5
27 31 36 42 49 49 44 37 31 26 20 16 15 13 11 10 9 7 7 10 11 10 10 11 12 10 10 11 12 11 10 8 7 7 6 5 4 2 1 1 1 3 4

GEFSSE_con_prob3kmehi_222.txt.gz
EHI
2 1 0 0 0 0 0 0 0 0 0 0 0 0 0 0 0 0 0 1 2 1 1 2 3 4 5 4 2 0 0 0 0 0 0 0 0 0 0 0 0 0 0
2 1 0 0 0 0 0 0 0 0 0 0 0 0 0 0 0 0 0 1 1 1 1 2 2 4 5 4 2 0 0 0 0 0 0 0 0 0 0 0 0 0 0
1 0 0 0 0 0 0 0 0 0 0 0 0 0 0 0 0 0 0 0 0 0 1 1 1 2 3 3 2 0 0 0 0 0 0 0 0 0 0 0 0 0 0
1 1 1 0 0 0 0 0 0 0 0 0 0 0 0 0 0 0 0 0 0 0 0 0 0 0 1 1 1 0 0 0 1 0 0 0 0 0 0 0 0 0 0
5 4 2 1 0 0 0 0 0 0 0 0 0 0 0 1 1 1 0 0 0 0 0 0 0 0 0 0 0 0 0 2 3 1 0 0 0 0 0 0 0 0 0
7 6 4 2 1 0 0 0 0 0 0 0 0 0 0 1 2 1 0 0 0 0 0 1 0 0 0 0 0 0 1 4 4 2 0 0 0 0 0 0 0 0 0
7 6 4 3 3 1 0 0 0 0 0 0 0 1 1 1 2 1 0 0 0 0 0 0 0 0 0 1 1 1 3 6 5 2 2 2 0 0 0 0 0 0 0
6 5 4 4 4 3 1 0 0 0 0 0 0 0 0 1 1 0 0 0 0 0 0 0 0 0 0 1 1 1 5 10 8 3 3 3 1 0 0 0 0 0 0
5 4 4 5 5 4 3 2 1 1 1 0 0 0 0 0 0 0 0 0 0 0 0 0 0 0 0 0 0 1 6 12 10 3 1 3 3 1 0 0 0 0 0
4 4 6 8 8 6 6 5 4 3 2 1 1 0 0 0 0 0 1 1 1 0 0 0 0 1 1 2 3 3 6 10 9 3 1 4 5 2 0 0 0 0 0
5 6 8 9 9 8 8 9 7 5 2 2 2 2 1 1 1 1 2 2 2 1 1 2 4 5 6 7 9 11 11 8 6 3 4 6 6 4 2 1 0 0 0
5 7 10 10 8 8 8 9 8 8 5 4 4 5 3 1 1 1 2 2 2 2 3 7 10 11 11 10 12 15 12 7 3 3 7 9 7 5 5 3 1 0 0
6 7 9 9 8 7 7 6 7 9 9 8 7 6 3 1 1 2 3 3 3 3 7 11 13 12 9 8 8 10 9 6 4 5 11 13 10 7 6 5 3 1 0
9 8 8 9 9 8 6 5 5 7 10 10 10 6 3 1 1 3 5 6 6 6 7 9 9 7 5 4 3 4 6 5 5 7 12 16 13 10 8 6 5 3 2
12 9 8 9 9 10 8 6 5 6 7 10 11 9 5 1 1 2 5 7 7 6 5 4 3 3 4 4 3 4 6 5 5 7 11 16 17 14 11 8 6 4 3
12 11 10 10 11 10 8 7 7 6 6 8 12 13 8 4 3 2 3 4 4 4 4 2 1 2 4 5 6 6 6 5 5 7 11 16 19 18 15 12 9 6 4
15 15 13 12 14 13 10 9 9 8 7 9 13 16 13 9 7 5 3 1 2 3 4 4 4 3 4 4 5 6 5 6 8 10 13 16 18 19 17 15 12 10 8
23 21 17 15 18 16 13 12 12 10 9 9 13 18 19 15 11 9 5 2 1 3 4 6 6 4 3 3 4 4 5 8 10 11 14 16 18 18 17 16 16 16 14
33 29 23 20 20 18 15 14 14 13 12 11 15 21 22 19 16 13 10 7 5 4 5 6 6 7 7 5 4 3 5 10 12 12 14 16 18 19 17 16 18 18 17
44 41 34 28 26 22 17 15 16 17 16 18 23 25 22 19 18 16 15 13 10 8 7 7 9 11 12 9 5 3 5 10 14 15 15 16 17 17 17 18 19 18 15
57 55 48 41 37 31 24 21 21 20 20 24 31 32 24 17 17 17 17 16 13 11 10 11 13 16 15 11 6 4 5 8 12 16 17 16 14 14 16 21 22 20 17
67 65 58 53 49 43 36 30 27 24 22 24 32 37 29 20 18 18 17 15 13 12 14 15 16 16 13 8 6 4 4 6 8 10 13 14 13 14 16 19 22 23 22
72 70 65 63 61 54 46 39 35 33 30 26 31 37 33 25 23 22 20 18 16 15 16 17 17 14 10 7 6 5 5 5 6 6 8 12 16 15 12 12 16 21 23
72 71 72 72 69 62 53 45 43 42 37 31 31 35 35 30 26 25 25 24 22 20 16 14 13 11 9 7 6 6 6 6 6 6 7 10 15 14 9 7 10 16 20
66 68 74 77 72 66 59 52 48 45 39 33 31 35 37 34 29 26 27 29 29 24 18 13 10 9 9 9 8 7 6 6 5 5 5 7 10 10 9 7 8 12 17
61 65 73 77 73 67 62 57 52 47 39 34 35 39 40 36 31 26 26 30 31 28 24 18 11 9 10 10 10 8 6 5 5 4 4 4 5 7 9 8 8 10 14

GEFSSE_con_prob3kmehi_228.txt.gz
EHI
0 2 4 4 2 1 0 0 0 0 0 0 1 2 3 3 2 1 0 0 1 2 3 3 3 3 4 4 4 2 1 0 0 0 0 0 0 0 0 0 0 0 0
1 3 4 4 2 1 0 0 0 0 0 0 1 2 2 2 2 1 0 0 0 1 2 2 2 2 3 4 4 2 1 0 0 0 0 0 0 0 0 0 0 0 0
2 2 3 3 2 1 0 0 0 0 0 0 0 1 1 1 1 0 0 0 0 0 1 1 1 1 1 3 3 2 1 0 0 0 0 0 0 0 0 0 0 0 0
1 1 2 3 2 0 0 0 0 0 0 0 0 0 0 0 0 0 0 0 0 0 0 0 0 0 0 1 2 2 1 0 0 0 0 0 0 0 0 0 0 0 0
0 0 1 3 1 0 0 0 0 0 0 0 0 0 0 0 0 0 0 0 0 0 0 0 0 0 1 2 3 3 2 1 0 0 0 0 0 0 0 0 0 0 0
0 0 1 2 1 0 0 0 0 0 0 0 0 0 0 0 0 0 0 0 0 0 0 0 0 0 1 2 3 3 2 1 0 0 0 0 0 0 0 0 0 0 0
1 0 1 2 2 1 0 0 0 0 0 0 0 0 0 0 0 0 0 0 0 0 0 0 0 0 1 2 3 3 2 1 0 0 0 0 1 1 1 0 0 0 0
2 1 1 2 2 1 0 0 0 0 0 0 0 0 0 0 0 0 0 1 1 1 0 0 0 0 0 1 2 4 3 1 0 0 0 0 2 4 3 1 0 0 0
2 1 1 1 1 0 0 1 1 0 0 1 1 0 0 0 1 1 1 1 1 1 0 0 0 1 1 2 3 5 5 2 0 0 0 1 4 7 4 1 0 0 0
1 1 1 0 0 0 0 2 3 1 0 1 1 0 0 0 1 1 1 1 1 1 0 0 1 2 3 4 5 5 5 2 0 0 0 2 7 8 5 2 1 0 0
1 1 1 0 0 0 0 1 2 2 1 1 1 0 0 0 0 0 1 2 2 2 2 3 4 5 5 5 4 4 2 1 0 0 0 3 8 8 6 4 2 1 1
3 2 1 1 1 0 0 1 1 2 2 1 0 0 0 0 0 0 1 2 3 3 3 4 5 6 4 2 2 1 0 0 0 0 2 6 10 9 6 5 4 3 3
7 5 4 4 3 2 2 2 2 1 1 1 0 0 0 0 0 0 1 2 2 2 2 2 3 3 1 0 0 0 0 0 0 0 3 10 14 11 7 4 4 4 4
9 7 6 6 6 5 5 5 4 3 2 0 0 0 0 0 0 0 0 1 1 1 0 0 0 0 0 0 0 0 0 0 0 0 4 13 17 13 7 5 4 4 4
11 9 8 8 7 6 6 6 6 5 4 2 0 0 1 1 0 0 0 0 0 0 0 0 0 0 0 0 0 0 0 0 0 0 4 13 17 14 10 8 6 5 5
14 13 12 10 8 7 6 7 7 7 6 4 1 0 1 1 0 0 0 0 0 0 0 0 0 0 0 0 0 0 0 0 0 0 2 8 14 15 14 11 8 7 6
16 16 15 12 9 7 6 6 6 6 5 3 1 0 0 0 0 0 1 0 0 0 0 0 0 0 0 0 0 0 0 0 0 0 1 3 8 12 15 13 11 9 9
16 16 15 12 9 7 6 6 5 5 4 3 1 1 1 1 0 0 0 0 0 0 0 0 0 0 0 0 0 0 0 0 0 0 0 1 3 6 9 12 12 11 12
17 16 15 12 9 7 6 6 5 4 3 3 2 3 3 2 1 0 0 0 0 0 0 0 0 0 0 0 0 0 0 0 0 0 0 0 0 1 3 7 9 11 11
20 18 16 13 9 7 8 7 6 4 4 4 5 5 5 3 2 1 1 0 0 0 0 0 0 0 0 0 0 0 0 0 0 0 0 0 0 0 0 2 4 6 6
27 24 21 17 12 11 12 11 8 6 6 7 8 7 5 4 3 3 3 1 1 0 0 0 0 0 0 0 1 1 0 0 0 0 0 0 0 0 0 0 0 1 2
35 32 28 24 21 18 17 15 12 10 9 10 10 6 4 4 4 5 4 3 2 1 0 0 0 0 1 1 2 2 1 1 0 0 0 0 0 0 0 0 0 0 0
39 36 33 32 31 28 25 22 17 13 12 11 9 6 4 3 4 5 4 3 2 1 0 0 1 1 2 3 3 3 3 2 1 1 0 0 0 0 0 0 0 0 0
42 39 37 38 39 36 33 30 23 17 14 12 10 7 4 3 5 6 5 3 1 0 1 1 2 3 3 3 3 3 3 3 2 1 0 0 0 0 0 0 1 0 0
46 44 42 43 43 40 36 33 28 22 15 13 11 8 4 3 4 5 5 4 2 1 2 3 3 3 3 3 3 3 3 3 3 2 1 1 0 0 0 0 0 0 0
50 48 47 47 45 41 36 33 31 25 18 15 12 8 4 2 3 4 5 5 4 3 3 3 3 3 3 3 3 3 3 3 3 2 2 2 1 0 0 0 0 0 0

GEFSSE_con_prob3kmehi_234.txt.gz
EHI
0 1 2 3 3 3 3 3 2 1 1 1 1 1 1 0 1 2 1 0 0 0 0 1 0 0 0 0 0 0 0 1 2 1 0 0 0 1 1 1 0 0 0
0 1 2 3 3 3 3 3 1 1 1 1 0 0 0 0 1 1 1 0 0 0 0 1 0 0 0 0 0 0 0 1 2 1 0 0 0 0 0 0 0 0 0
1 1 2 3 3 3 3 2 1 0 0 0 0 1 1 0 0 0 0 0 0 0 0 0 0 0 0 0 0 0 0 1 1 1 0 0 0 0 0 0 0 0 0
1 1 2 3 3 3 3 2 1 0 0 0 0 1 1 0 0 0 0 0 0 0 0 0 0 0 0 0 0 0 0 1 1 0 0 0 0 0 0 0 0 0 0
1 0 1 3 3 3 3 2 1 0 0 0 0 1 1 0 0 0 0 0 0 0 0 0 0 0 0 0 0 0 0 0 0 0 0 0 0 0 0 0 0 0 0
0 0 1 2 3 3 2 1 0 0 0 0 0 0 0 0 0 0 0 0 0 0 0 0 0 0 0 0 0 1 0 0 0 0 0 0 0 0 0 0 0 0 0
0 0 1 2 2 1 1 0 0 0 0 0 0 0 0 0 0 0 0 0 0 0 0 0 0 0 0 0 1 1 1 1 0 0 0 0 0 0 0 0 0 0 0
0 0 1 1 1 0 0 0 0 0 1 1 0 0 0 0 0 0 0 0 0 0 0 0 0 0 0 1 2 2 2 2 1 0 0 0 0 0 0 0 0 0 0
0 0 0 0 0 0 0 0 0 1 2 1 0 0 1 1 1 0 0 0 0 0 0 0 0 0 0 1 2 3 2 2 1 0 0 0 0 0 0 0 0 0 0
0 0 0 0 0 0 0 0 0 1 1 1 0 1 2 2 1 0 0 0 0 0 0 0 0 0 0 0 1 2 2 1 0 0 0 0 0 0 0 0 0 0 0
0 0 0 0 0 0 0 0 1 1 0 0 0 1 2 1 0 0 0 0 0 0 0 0 0 0 0 0 1 2 2 1 0 0 0 0 0 1 1 1 1 0 0
0 0 0 0 0 0 0 0 0 0 0 0 0 1 1 0 0 0 0 0 0 0 0 0 0 0 0 0 0 1 1 0 0 0 0 0 1 2 2 2 2 1 1
0 0 0 0 0 0 0 0 0 0 0 0 0 0 0 0 0 0 0 0 0 0 0 0 0 0 0 0 0 0 0 0 0 0 0 1 3 4 3 3 3 3 2
0 0 0 0 0 0 0 0 0 0 0 0 0 0 0 0 0 0 0 0 0 0 0 0 0 0 0 0 0 0 0 0 0 0 0 2 4 5 4 3 3 4 4
1 0 0 0 0 0 0 0 0 0 0 0 0 0 0 0 0 0 0 0 0 0 0 0 0 0 0 0 0 0 0 0 0 0 0 1 3 4 4 4 4 5 4
2 1 0 0 0 0 0 0 0 0 0 0 0 0 0 0 0 0 0 0 0 0 0 0 0 0 0 0 0 0 0 0 0 0 0 1 2 4 5 5 6 6 5
4 2 1 1 0 0 0 0 0 0 0 0 1 1 1 0 0 0 0 0 0 0 0 0 0 0 0 0 0 0 0 0 0 1 1 0 1 3 5 7 8 8 6
6 4 2 3 1 0 0 0 0 0 0 0 1 1 1 0 0 0 1 1 1 0 0 0 0 0 0 0 0 0 0 0 1 1 1 0 0 1 2 5 8 9 9
5 3 2 2 2 0 0 0 0 0 0 0 0 1 1 1 1 1 2 2 1 0 0 0 0 0 0 0 0 0 0 1 1 1 1 0 0 0 1 3 6 8 8
2 2 1 2 2 1 0 0 0 0 0 1 1 2 3 2 1 2 3 2 1 0 0 0 0 0 0 0 0 0 0 1 1 0 0 0 0 0 0 1 2 3 4
1 1 2 3 3 2 1 1 0 0 0 1 2 3 3 2 1 2 2 2 1 0 0 0 0 0 0 1 1 1 1 1 0 0 0 0 0 0 0 0 0 0 1
2 3 5 5 4 3 3 3 2 1 1 1 2 3 2 1 0 1 1 1 0 0 0 0 0 0 1 2 2 2 2 1 1 1 1 1 0 0 0 0 0 0 0
3 5 7 6 4 3 4 5 5 4 3 3 3 3 2 1 0 0 0 0 0 0 0 0 0 1 2 3 3 3 3 3 2 3 2 1 0 0 0 0 0 0 0
5 6 7 6 5 5 6 6 7 7 6 4 3 3 2 1 0 0 0 0 0 0 0 0 1 2 3 3 3 3 3 3 3 3 3 1 0 0 0 0 0 0 0
7 8 8 7 7 9 9 7 7 8 7 4 3 4 3 1 0 0 0 0 0 0 0 1 1 3 3 3 3 3 3 3 3 3 3 2 1 0 0 0 0 0 0
8 10 9 9 9 10 10 8 7 9 7 5 4 4 3 1 0 0 0 0 0 0 1 2 2 3 3 3 3 3 3 3 3 3 3 3 2 1 0 0 0 0 0

GEFSSE_con_prob3kmehi_240.txt.gz
EHI
0 1 2 3 3 3 3 1 1 1 1 0 0 0 0 0 0 1 0 0 0 0 0 0 0 1 0 0 0 1 3 3 3 2 2 2 4 5 3 2 1 0 0
0 1 2 3 2 2 2 2 1 0 0 0 0 0 0 0 0 1 0 0 0 0 0 0 0 1 0 0 0 1 2 2 2 1 1 1 3 4 4 4 2 1 0
0 1 2 2 2 1 2 2 1 0 0 0 0 0 0 0 0 1 1 0 0 0 0 0 0 0 0 0 0 1 1 1 1 0 0 0 1 3 3 3 2 1 0
0 0 1 2 2 2 1 1 1 0 0 0 0 0 0 0 0 1 2 1 0 0 0 0 0 0 0 0 0 0 0 0 0 0 0 0 0 1 1 1 1 0 0
0 0 1 2 2 2 1 1 0 0 0 0 0 0 0 0 1 2 3 2 1 1 0 0 0 0 0 0 0 0 0 0 0 0 0 0 0 0 0 0 0 0 0
0 0 0 1 1 1 1 1 1 0 0 0 0 0 0 0 1 3 3 1 0 0 0 0 0 0 0 0 0 0 0 0 0 0 0 0 0 0 0 0 0 0 0
0 0 0 0 0 0 0 1 1 0 0 0 0 0 0 1 2 3 2 1 0 0 0 0 0 0 0 0 0 0 0 0 0 0 0 0 0 0 0 0 0 0 0
0 0 1 1 0 0 0 0 0 0 0 0 0 0 0 1 2 2 1 0 0 0 0 0 0 0 0 0 0 0 0 0 0 0 0 0 1 1 1 0 0 0 0
0 0 1 1 0 0 0 0 0 0 0 0 0 0 0 0 1 1 1 0 0 0 0 0 0 0 0 0 1 1 1 0 0 0 0 2 3 4 3 2 0 0 0
0 1 1 1 0 0 0 0 0 0 0 0 1 1 0 0 1 1 1 0 0 0 0 0 0 0 1 2 2 2 2 1 1 0 1 3 5 5 5 3 1 0 1
1 1 0 0 0 0 0 0 1 1 1 1 1 1 1 1 2 2 1 0 0 0 0 0 0 1 2 3 3 4 3 2 1 0 1 3 4 4 4 4 2 2 2
0 0 0 0 0 0 0 1 2 2 2 2 1 1 0 1 2 1 1 0 0 0 0 0 0 1 2 2 4 4 3 1 1 0 1 2 3 3 2 3 3 3 3
0 0 0 0 0 0 0 1 2 2 2 2 1 0 0 1 1 1 1 0 0 0 0 0 0 1 1 1 3 3 1 1 1 1 1 3 3 2 1 1 3 3 3
0 0 0 0 0 0 0 0 1 1 1 1 0 1 2 1 1 1 1 1 0 0 0 0 0 0 1 1 2 1 0 0 0 1 2 3 3 2 2 2 3 3 4
0 0 0 1 1 1 1 1 2 2 1 0 1 2 3 2 0 1 2 2 1 0 0 0 0 0 1 2 1 1 1 1 1 1 3 4 4 4 4 3 3 3 4
0 0 1 2 4 4 4 3 3 4 4 2 2 3 3 3 2 2 3 4 3 1 1 1 0 0 1 1 2 2 2 2 2 3 3 4 5 6 6 4 3 3 2
1 1 1 3 5 6 6 4 4 5 6 5 4 5 6 6 5 5 5 6 6 4 3 2 1 0 0 0 2 3 3 3 3 3 3 3 4 5 6 5 3 2 2
3 3 3 4 5 6 6 5 5 5 7 7 7 8 9 8 7 6 6 6 6 5 4 3 2 1 1 1 2 3 3 3 3 3 3 3 3 4 5 6 5 4 4
5 6 8 8 8 8 7 7 7 7 8 9 9 9 9 9 9 7 5 4 4 4 3 2 2 3 3 3 3 3 3 3 3 3 3 4 4 4 5 6 6 5 4
8 11 15 16 17 15 12 10 8 8 9 10 9 9 8 8 8 7 4 3 2 3 3 2 2 4 6 6 4 3 4 3 4 4 5 5 5 5 7 8 8 5 3
12 17 22 25 26 25 20 14 10 9 10 10 9 8 7 6 6 5 3 2 1 1 1 1 2 3 5 6 6 5 4 4 4 5 6 6 6 6 7 9 10 7 4
16 20 24 28 30 28 24 19 13 11 11 11 10 9 8 7 5 4 3 2 1 0 0 0 1 2 3 5 6 6 5 4 5 5 6 6 8 8 8 9 10 8 6
17 18 21 26 29 29 25 20 17 15 13 12 12 11 9 8 7 5 3 2 1 0 0 0 1 3 3 4 6 7 6 5 6 6 6 7 10 11 10 8 7 7 8
13 13 18 25 31 31 27 22 18 17 15 13 13 12 10 9 10 8 3 1 0 0 0 0 1 3 4 5 6 7 8 7 7 6 5 6 8 10 11 8 6 7 8
8 10 17 26 34 34 30 25 21 18 16 14 13 12 11 12 12 9 3 0 1 2 2 2 3 4 4 5 6 8 9 9 7 6 5 5 5 7 8 8 7 8 8
6 8 16 28 36 36 32 29 25 20 17 14 13 12 12 13 13 8 2 0 1 4 4 3 4 5 5 5 6 8 9 8 7 6 6 6 5 5 7 8 9 9 8

GEFSSE_con_prob3kmehi_246.txt.gz
EHI
3 2 1 0 0 0 1 3 3 1 0 0 0 0 0 1 2 3 3 1 0 0 0 1 1 2 2 1 0 0 0 0 0 0 0 0 0 0 0 0 0 1 2
3 2 1 0 0 0 2 3 3 2 0 0 0 0 0 1 2 3 3 2 1 0 0 1 1 2 2 1 0 0 0 0 0 0 0 0 0 1 1 0 0 1 2
2 2 1 0 0 0 1 2 2 1 0 0 0 0 0 1 2 3 3 3 2 1 0 1 1 1 1 0 0 0 0 0 0 0 0 0 0 2 2 1 0 0 1
4 4 3 1 0 0 0 1 1 0 0 0 0 0 0 0 1 2 3 3 3 2 1 0 0 0 0 0 0 0 0 0 0 0 0 0 0 1 1 0 0 0 0
8 7 6 3 2 2 1 0 0 0 0 0 0 1 1 1 1 1 2 3 3 3 2 0 0 0 0 0 0 0 1 1 1 0 0 0 0 0 0 0 0 0 0
8 7 7 5 3 3 2 1 0 0 0 0 0 1 2 2 1 1 1 2 3 2 1 0 0 0 0 0 0 1 2 3 2 1 1 1 1 0 0 0 0 0 0
6 5 6 6 5 3 2 1 0 0 0 0 0 1 1 2 1 0 0 1 1 1 1 0 0 0 0 0 0 2 5 6 4 2 3 4 3 2 1 0 0 0 0
5 4 5 7 6 5 4 2 0 0 0 1 1 1 0 0 0 0 0 0 0 0 0 0 0 0 1 1 2 4 9 10 6 2 4 6 6 6 3 1 0 0 0
3 3 4 7 7 6 5 3 1 0 1 2 2 2 1 1 1 1 0 0 0 0 0 0 1 2 3 4 5 7 11 12 6 2 2 6 9 9 5 2 1 1 2
1 2 4 7 9 8 6 4 3 2 2 3 4 3 3 2 3 3 2 1 0 0 0 1 3 5 6 7 9 12 12 9 5 2 3 7 11 9 5 3 3 4 5
1 2 4 7 9 7 5 5 6 5 6 6 6 6 7 5 4 4 5 6 4 2 2 3 6 7 7 9 13 17 13 8 5 4 6 11 12 10 6 4 4 5 6
2 3 6 8 7 4 3 5 7 8 10 10 9 9 10 7 5 5 7 10 9 7 6 9 10 8 6 7 12 15 12 7 5 4 8 14 15 12 8 5 3 4 5
4 5 8 9 8 6 5 6 8 10 12 10 9 10 8 6 5 5 7 9 12 11 9 11 12 8 5 5 6 8 7 5 4 4 9 16 17 15 10 6 4 3 4
5 7 9 10 11 11 11 10 10 10 10 9 9 8 5 4 5 6 6 7 9 9 7 8 9 6 4 4 4 4 4 3 3 5 11 16 17 15 13 8 5 3 3
6 9 10 11 13 14 14 13 10 9 8 9 9 8 5 5 5 6 8 7 6 5 5 6 7 5 4 5 5 5 4 4 3 5 10 14 15 15 14 11 8 5 4
7 9 12 14 16 16 13 12 11 9 9 9 9 9 8 7 7 7 9 10 7 5 7 9 8 6 6 6 6 6 6 5 4 4 8 11 13 13 13 12 10 7 5
10 14 16 17 20 20 16 13 11 10 10 11 10 9 10 10 9 9 10 11 9 9 11 12 10 9 8 7 8 8 8 7 5 5 7 9 10 11 11 11 11 8 6
17 22 21 18 20 22 21 18 14 12 12 13 14 14 14 13 12 12 12 12 11 11 11 10 10 11 12 11 11 11 10 9 7 7 7 7 9 9 10 11 11 8 7
27 29 26 21 20 22 23 21 18 16 15 18 22 23 19 16 14 13 13 12 12 11 9 6 6 10 14 14 12 11 12 11 10 9 8 7 9 11 12 12 12 10 10
37 36 33 30 28 26 24 22 20 20 22 24 29 29 23 18 15 13 12 12 12 11 8 5 5 9 13 13 10 9 10 11 11 9 7 6 8 11 13 13 12 12 11
46 46 43 39 38 35 30 26 24 25 27 29 32 31 26 21 19 16 16 16 15 11 7 5 6 9 11 11 9 7 7 7 8 8 7 6 5 8 10 12 13 13 12
53 52 49 45 45 44 40 33 29 29 27 27 31 32 30 26 23 20 21 21 17 12 9 7 7 9 10 9 8 7 5 5 5 6 7 5 5 7 9 11 13 14 15
53 53 52 51 50 50 46 37 33 32 28 24 27 31 32 29 26 23 21 20 16 13 11 9 8 8 8 7 6 5 4 4 4 5 5 6 7 8 8 7 9 13 14
47 51 56 57 57 55 50 42 36 33 30 26 27 29 30 29 25 22 20 18 16 15 14 13 11 9 7 6 5 4 4 4 4 4 5 6 7 7 6 5 6 10 12
42 50 59 62 62 58 53 47 40 34 31 30 30 29 28 28 26 23 22 20 19 18 17 17 17 15 10 6 5 4 4 3 2 3 4 5 6 6 5 5 6 9 12
41 50 59 62 62 58 53 49 43 36 33 33 31 29 28 28 27 26 26 25 22 19 17 19 22 20 14 8 6 5 4 3 1 1 3 4 5 6 6 7 7 9 11

GEFSSE_con_prob3kmehi_252.txt.gz
EHI
0 0 1 0 1 2 3 3 3 2 2 1 1 2 4 6 6 4 1 0 1 1 1 2 2 1 0 1 2 2 1 0 0 0 0 0 0 0 0 0 0 0 0
0 0 1 0 1 2 2 3 3 3 3 2 1 3 5 6 6 4 2 1 0 0 0 1 1 0 0 0 1 1 0 0 0 0 0 0 0 0 0 0 0 0 0
0 0 0 0 0 1 1 1 2 2 2 2 1 3 5 7 6 4 3 1 0 0 0 0 0 0 0 0 0 0 0 0 0 0 0 0 0 0 0 0 0 0 0
0 0 0 0 0 0 0 0 1 1 1 1 0 1 4 6 6 5 3 1 0 0 0 0 0 0 0 1 1 0 0 1 1 0 0 0 0 0 0 0 0 0 0
0 0 0 0 0 0 0 0 0 0 0 0 0 1 2 4 5 4 2 1 0 0 0 0 0 0 0 1 1 0 0 1 1 0 0 0 0 0 1 1 1 0 0
0 0 0 0 0 0 0 0 0 0 0 0 1 1 1 1 3 3 1 0 0 0 0 0 0 0 0 1 1 0 0 1 1 0 0 0 0 1 2 2 2 1 1
1 1 1 0 0 0 0 0 0 0 0 1 2 2 1 0 1 1 0 0 0 0 0 0 0 0 0 0 1 1 1 1 0 0 0 0 1 2 3 3 3 3 2
2 2 1 0 0 0 0 0 1 1 2 3 3 3 1 0 0 0 0 0 0 0 0 0 0 0 1 1 2 3 3 2 1 0 0 0 1 4 5 4 3 3 3
2 2 1 0 0 0 0 1 2 3 3 3 3 3 2 1 0 0 0 0 0 0 0 1 1 1 2 3 3 4 5 4 2 1 1 1 3 5 6 4 3 3 3
1 1 0 0 0 0 0 1 3 5 5 4 4 3 2 1 1 0 0 0 1 1 2 3 3 3 4 4 4 5 5 5 3 2 2 3 5 7 6 4 3 3 3
0 0 0 0 0 0 0 0 2 3 5 5 4 3 2 1 0 0 0 2 3 3 4 5 5 5 5 5 5 5 4 4 3 3 3 5 8 9 7 4 3 3 3
0 0 0 0 0 0 0 0 0 1 2 3 2 2 2 1 0 0 1 3 4 4 4 4 5 5 4 4 5 4 3 3 3 3 3 6 9 10 7 5 3 3 3
1 0 0 0 0 0 0 0 0 1 1 1 1 2 2 1 0 0 1 2 3 3 2 2 3 2 1 2 3 3 3 3 3 3 4 7 10 10 7 5 3 3 3
3 2 1 1 0 0 0 0 1 2 2 2 2 3 2 1 1 0 0 1 1 1 1 0 1 1 1 1 3 3 3 3 3 3 4 8 11 11 8 5 3 3 3
6 6 4 3 2 1 1 1 1 2 3 3 3 3 3 3 2 1 0 0 0 0 1 1 1 2 2 3 3 3 3 3 3 3 4 8 11 11 10 7 4 3 4
11 10 8 6 4 3 3 2 1 2 2 2 2 3 3 3 3 2 0 0 0 0 1 2 2 3 3 2 3 3 3 3 3 3 3 5 9 10 9 7 5 4 3
13 12 10 7 4 4 4 2 1 1 2 1 1 2 3 3 3 2 1 0 0 0 1 1 2 3 2 1 2 3 3 3 3 3 2 2 4 5 6 6 5 3 2
12 13 11 8 5 4 4 2 1 1 1 1 2 2 2 3 3 3 2 1 0 0 0 0 1 2 2 2 2 3 3 3 3 2 1 1 1 2 4 6 5 4 4
11 12 11 9 7 6 6 3 1 0 0 1 3 3 3 4 5 4 2 1 1 1 0 0 0 1 2 3 3 3 3 3 2 1 1 1 2 3 4 5 5 5 5
8 10 12 12 9 9 8 5 2 1 0 1 3 5 5 6 7 4 2 1 2 1 0 0 0 0 1 3 4 3 3 2 1 0 1 2 2 3 3 4 4 3 3
9 9 12 15 13 11 9 8 6 4 2 3 4 6 6 7 7 5 2 1 1 1 0 0 0 0 1 3 3 2 2 1 1 0 0 1 1 2 3 3 3 2 1
14 14 17 20 18 14 11 9 8 6 4 4 5 6 6 7 6 5 3 1 0 0 0 0 0 1 2 2 1 1 0 0 0 0 0 0 0 1 2 3 3 2 1
19 20 24 25 23 19 14 12 11 9 7 5 4 5 6 6 5 4 3 2 0 0 0 0 1 2 2 1 0 0 0 0 0 0 0 0 0 0 1 2 3 3 3
23 24 26 29 28 23 17 15 15 13 10 6 5 6 7 5 4 2 3 2 1 0 0 0 1 1 1 0 0 0 0 0 0 0 0 0 0 0 0 1 2 3 3
29 29 29 30 31 26 19 16 16 14 12 10 8 8 8 7 4 2 2 2 1 1 2 2 1 0 0 0 0 0 0 0 0 0 0 0 0 0 0 0 1 1 2
34 34 33 32 32 27 20 16 15 14 14 12 10 9 9 8 6 4 2 1 2 3 4 4 1 0 0 0 0 0 0 0 0 0 0 0 0 0 0 0 0 0 1

GEFSSE_con_prob3kmehi_258.txt.gz
EHI
0 1 0 0 0 0 0 0 0 0 1 2 3 3 2 1 2 2 1 0 0 0 2 3 2 1 0 1 2 2 1 0 1 1 1 1 1 1 0 0 0 1 1
1 1 0 0 0 0 0 0 0 0 0 1 3 3 2 2 2 2 1 0 0 1 2 3 3 1 1 0 1 1 0 1 2 2 1 1 1 1 0 0 0 0 1
0 0 0 0 0 0 0 0 0 0 0 1 1 2 1 1 1 1 0 0 1 2 1 1 2 2 1 0 0 0 0 1 2 2 1 0 0 1 0 0 0 0 0
0 0 0 0 0 0 0 0 0 0 0 1 1 1 0 0 0 0 1 1 2 2 1 0 0 1 1 0 0 0 0 1 2 1 0 0 0 0 0 0 0 0 0
0 0 0 0 0 0 0 0 0 0 0 1 1 0 0 0 0 1 3 3 2 1 0 0 0 0 0 0 0 0 1 1 1 0 0 0 0 0 0 0 0 0 0
0 0 0 0 0 0 0 0 0 0 0 0 0 0 0 0 0 1 3 3 1 0 0 0 0 0 0 0 0 0 1 1 0 1 1 0 0 0 0 0 0 0 0
0 0 0 0 0 0 0 0 0 0 0 0 0 0 0 0 0 0 1 1 0 0 0 0 0 0 0 0 0 1 2 2 2 2 2 1 1 0 0 0 1 1 0
0 0 0 0 0 0 0 0 0 0 0 0 0 0 0 0 0 0 0 0 0 0 0 0 0 0 1 1 1 2 3 3 3 3 3 3 2 1 0 0 1 2 1
0 0 0 0 0 0 0 0 1 1 1 1 0 0 0 0 0 0 0 0 0 1 1 1 1 1 2 2 3 3 3 3 3 3 3 3 3 2 1 1 1 2 2
0 0 0 0 0 0 0 0 1 2 2 2 1 0 0 0 0 0 0 1 1 2 2 2 2 3 3 3 3 3 3 3 3 3 3 3 3 3 3 2 2 2 2
0 0 0 0 0 0 0 0 0 1 2 2 1 0 0 0 0 0 1 2 3 3 3 3 3 3 3 3 2 2 2 2 2 2 3 3 3 3 3 3 2 2 2
0 0 0 0 0 0 0 0 0 0 1 1 1 0 0 0 0 0 1 2 2 2 2 2 2 2 2 1 1 1 1 1 1 2 3 3 4 4 3 3 3 3 2
0 0 0 0 0 0 0 0 0 0 0 0 0 0 0 0 0 0 0 1 1 1 1 1 1 1 1 0 0 0 0 1 1 2 3 4 4 4 3 3 2 2 2
0 0 0 0 0 0 0 0 0 0 0 0 0 0 0 0 0 0 0 0 0 0 0 0 0 0 0 0 0 0 0 1 2 3 3 3 3 4 3 1 1 1 1
0 0 0 0 0 0 0 0 0 0 0 0 0 0 0 0 0 0 0 0 0 0 0 0 0 0 0 0 0 0 0 1 2 2 1 1 1 3 2 1 0 0 0
0 0 0 0 0 0 0 0 0 0 0 0 0 0 0 0 0 0 0 0 0 0 0 0 0 0 0 0 0 0 0 1 2 1 0 0 1 2 2 1 0 0 0
0 0 0 0 0 0 0 0 0 0 0 0 0 0 0 0 0 0 0 0 0 0 0 0 0 0 0 0 0 0 1 1 1 0 0 0 0 1 1 0 0 0 0
1 0 0 0 0 0 0 0 0 0 0 0 0 1 2 1 1 0 0 0 0 0 0 0 0 0 0 0 0 0 1 0 0 0 0 0 0 0 0 0 0 0 0
2 1 0 0 0 0 0 0 0 1 1 1 1 3 3 2 1 0 0 0 0 0 0 0 0 0 0 0 0 0 0 0 0 0 0 0 0 0 0 0 0 0 0
2 1 1 0 0 0 0 0 1 2 2 2 2 4 4 2 1 0 0 0 0 0 0 0 0 0 0 0 0 0 0 0 0 0 0 0 0 0 0 0 0 0 0
3 3 2 1 0 0 1 1 2 2 1 1 1 2 3 2 1 0 0 0 0 0 0 0 0 0 0 0 0 0 0 0 0 0 0 0 0 0 0 0 0 0 0
4 4 3 1 0 0 2 3 4 3 1 0 0 1 1 2 2 1 0 0 0 0 0 0 0 0 0 0 0 0 0 0 0 0 0 0 0 0 0 0 0 0 0
5 5 4 1 0 0 2 4 4 3 1 0 0 0 1 2 2 1 0 0 0 0 0 0 0 0 0 0 0 0 0 0 0 0 0 0 0 0 0 0 0 0 0
9 9 7 4 1 1 3 4 4 3 2 1 1 0 0 1 1 0 0 0 0 0 0 0 0 0 0 0 0 0 0 0 0 0 0 0 0 0 0 0 0 0 0
12 11 10 7 4 2 3 4 4 4 4 3 2 1 0 0 0 0 0 0 0 0 0 0 0 0 0 0 0 0 0 0 0 0 0 0 0 0 0 0 0 0 0
12 11 10 8 5 3 3 4 5 6 5 4 2 1 0 0 0 0 0 0 0 0 0 0 0 0 0 0 0 0 0 0 0 0 0 0 0 0 0 0 0 0 0

GEFSSE_con_prob3kmehi_264.txt.gz
EHI
0 0 1 2 1 0 0 0 0 0 0 0 0 0 0 1 2 3 3 3 2 1 0 1 2 2 2 2 1 1 2 1 0 0 0 1 2 3 2 1 0 1 1
0 0 1 2 2 1 1 1 0 0 0 0 0 0 0 0 1 2 3 3 2 1 0 1 1 1 1 1 0 1 1 1 0 0 0 1 3 3 2 1 1 1 1
0 0 1 2 3 2 2 2 1 0 0 0 0 0 0 0 0 1 2 3 2 1 0 0 0 0 0 0 0 0 0 0 0 0 0 1 2 4 2 1 2 1 0
0 0 0 1 2 2 2 3 1 0 0 0 1 1 1 0 0 0 1 2 1 1 1 0 0 0 0 0 0 0 0 0 0 0 0 0 1 3 3 2 1 0 0
0 0 0 0 0 1 2 3 2 1 1 1 2 2 2 1 0 0 0 1 1 1 1 0 0 0 0 0 0 0 0 0 0 0 0 0 1 2 3 2 1 0 0
0 0 0 0 0 0 2 2 1 1 1 2 3 3 3 1 1 0 0 1 0 0 0 0 0 0 0 0 0 1 1 1 1 0 0 0 1 2 3 3 1 1 0
0 0 0 0 0 0 1 1 0 0 1 1 2 3 2 2 2 1 0 0 0 0 0 0 0 0 1 1 1 3 4 4 2 1 1 1 1 2 3 3 2 2 1
0 0 0 0 0 0 0 0 0 0 0 0 1 1 1 2 2 2 0 0 0 0 0 0 0 1 3 3 3 4 5 4 3 3 3 2 1 2 2 2 2 2 2
0 0 0 0 0 0 0 0 0 0 0 0 0 0 1 3 2 1 0 0 0 0 0 1 1 3 4 3 3 3 4 3 3 3 3 3 1 1 1 1 1 1 2
0 0 0 0 0 0 0 0 0 0 0 0 0 0 1 3 2 0 0 0 0 0 0 1 3 4 4 3 3 3 3 3 3 3 3 3 2 1 0 0 0 0 1
0 0 0 0 0 0 0 0 0 0 0 0 0 0 1 2 1 0 0 1 0 0 0 1 2 4 4 3 3 3 3 3 3 3 3 3 2 1 0 0 0 0 0
0 0 0 0 0 0 0 0 0 0 0 0 0 0 1 2 1 1 0 0 0 0 0 0 1 2 3 2 2 3 2 2 3 3 3 1 1 0 0 0 0 0 0
0 0 0 0 0 0 0 0 0 1 1 1 0 1 2 3 3 2 1 0 0 0 0 0 0 1 1 1 1 2 1 1 2 3 2 1 0 1 1 0 0 0 0
0 0 0 0 0 0 0 0 1 2 2 1 1 1 3 3 3 3 2 1 0 0 0 0 1 1 0 0 0 0 0 0 1 2 2 1 1 3 3 1 0 0 0
0 0 0 0 0 0 1 1 1 3 3 3 3 3 3 3 3 3 2 1 0 0 1 2 3 2 1 0 0 0 0 0 0 1 1 1 2 4 3 2 1 0 0
0 0 0 0 0 0 1 1 1 3 4 4 4 4 4 3 3 1 1 1 0 1 3 4 4 2 1 0 0 0 0 0 0 0 0 1 2 2 1 1 1 1 1
0 0 0 0 0 1 1 1 2 3 3 4 5 5 5 4 3 1 1 1 1 2 4 4 2 1 0 0 0 0 0 0 0 0 0 0 0 0 0 0 0 1 1
1 1 1 1 2 2 2 3 4 5 5 6 7 7 7 6 4 3 2 1 1 2 3 1 0 0 0 0 0 0 0 0 0 0 0 0 0 0 0 1 1 0 1
2 3 3 3 4 4 4 5 7 9 9 9 9 9 8 7 5 3 2 1 1 1 1 0 0 0 0 0 0 0 0 0 0 0 0 0 0 0 0 1 2 1 1
4 6 7 6 7 7 6 6 8 10 10 10 9 9 8 6 3 2 2 2 1 0 0 0 0 0 0 0 0 0 0 0 0 0 0 0 0 0 0 1 2 2 2
8 10 12 12 13 13 10 8 9 9 10 10 9 7 5 3 1 0 1 1 1 0 0 0 0 0 0 0 0 0 0 0 0 0 0 0 0 0 0 0 1 2 2
12 13 15 17 18 16 13 10 10 10 10 10 9 7 4 2 1 0 0 0 1 1 1 1 0 0 0 0 0 0 0 0 0 0 0 0 0 0 0 0 1 2 2
14 14 16 19 20 19 17 14 12 11 10 10 9 8 6 5 3 2 1 1 1 1 2 1 0 0 0 0 0 0 0 0 0 0 0 1 0 0 0 0 1 1 1
12 14 18 21 23 24 23 19 16 12 9 9 9 8 8 7 6 6 5 4 3 3 3 2 1 1 0 0 1 1 1 0 0 0 0 1 1 0 0 0 0 0 1
10 13 19 25 28 29 26 23 20 15 12 10 9 8 7 7 7 8 8 7 7 6 5 4 3 3 2 2 1 1 2 2 1 1 0 1 2 1 0 0 0 0 0
9 12 19 28 33 31 27 25 23 20 16 12 9 7 5 6 8 9 8 9 8 7 6 6 5 4 3 3 2 2 3 4 3 2 1 2 3 2 1 0 0 0 0

GEFSSE_con_prob3kmehi_270.txt.gz
EHI
1 1 1 2 2 2 1 0 0 0 0 0 0 0 0 0 0 0 1 2 3 4 4 4 3 3 5 8 8 5 3 3 3 2 2 3 3 3 3 3 3 3 4
1 1 1 1 1 1 1 0 0 0 0 0 0 0 0 0 0 0 1 3 3 4 4 3 2 3 4 6 5 4 3 2 2 1 1 2 2 3 4 4 4 4 5
1 0 0 0 0 0 0 0 0 0 0 0 0 0 0 0 0 1 2 3 4 4 3 2 1 2 3 3 2 2 2 1 1 0 0 1 2 5 7 6 5 5 5
1 0 0 0 0 0 0 0 0 0 0 0 0 0 0 0 0 1 2 3 4 3 2 1 0 1 1 1 0 1 1 0 0 0 0 0 1 5 8 7 5 4 4
1 1 1 1 1 0 0 1 0 0 0 0 0 0 0 0 0 1 1 3 3 2 1 0 0 0 0 0 0 0 1 1 1 1 1 1 2 4 6 6 4 3 3
1 1 2 3 2 1 1 1 1 1 0 0 0 0 0 0 0 1 1 2 3 2 1 0 0 0 1 1 1 1 2 3 3 2 2 2 2 3 4 4 3 3 2
1 1 2 3 3 3 2 2 2 2 1 1 1 1 1 0 0 0 1 2 3 2 1 0 0 2 3 3 2 3 4 4 4 2 1 2 3 4 5 4 2 1 1
1 1 2 3 3 3 3 3 3 3 3 3 4 4 2 1 0 0 0 1 2 2 1 1 2 4 4 4 3 3 5 5 4 2 1 3 5 6 6 4 2 1 0
1 1 2 3 3 4 4 4 4 3 3 3 4 4 3 1 0 1 1 2 3 2 2 2 3 4 4 3 4 5 6 6 4 3 2 3 5 5 5 3 2 1 1
0 1 2 3 3 4 5 5 5 4 3 4 4 4 4 2 2 3 4 5 6 5 4 4 4 4 4 4 5 7 8 6 4 3 3 3 3 3 3 3 2 1 0
0 0 1 2 3 2 3 4 5 5 5 5 6 8 8 6 4 4 6 9 10 8 7 7 6 6 5 6 8 9 7 4 2 3 3 3 3 2 2 3 2 0 0
0 0 1 2 3 2 1 1 3 4 6 6 6 9 9 6 4 4 6 10 11 9 9 9 9 6 5 5 7 8 5 2 2 2 3 4 3 3 3 3 2 1 0
1 1 2 3 5 4 2 1 1 3 5 6 5 7 7 5 3 3 4 6 8 8 7 8 8 5 3 2 4 5 4 2 1 2 3 4 4 4 4 3 3 2 1
3 3 3 4 6 8 7 4 2 2 5 6 5 4 5 5 3 2 4 5 4 4 4 5 5 4 3 3 2 3 3 1 1 1 3 3 4 4 4 3 2 1 0
5 6 6 6 9 12 13 10 6 5 7 8 7 6 6 5 4 4 6 6 3 2 3 4 4 4 4 4 3 3 2 1 0 1 1 3 4 5 5 2 1 1 0
4 6 9 11 14 15 15 13 10 9 11 12 13 11 10 8 6 6 7 6 4 3 4 5 4 4 4 3 3 3 2 1 0 0 1 2 4 5 5 3 2 1 1
2 5 9 12 15 15 13 11 10 11 12 14 15 15 13 11 8 7 6 5 5 5 5 4 4 4 3 1 1 3 3 1 0 1 2 3 3 4 5 4 2 1 0
5 6 7 9 14 16 15 12 11 11 11 11 13 13 14 14 11 8 6 5 4 4 4 3 3 3 2 1 1 3 4 3 1 1 2 4 4 4 5 4 3 1 0
11 11 8 9 15 18 17 18 16 13 11 12 13 13 13 14 12 9 7 5 4 3 3 3 2 2 2 2 2 3 4 4 4 2 2 4 5 6 5 5 5 3 1
19 20 17 17 21 21 20 23 23 17 14 16 18 16 13 11 10 9 8 6 5 3 4 4 4 3 3 2 1 2 4 5 6 5 3 4 6 8 8 6 5 4 3
28 31 32 31 31 28 25 25 25 21 19 20 21 20 17 12 9 9 9 9 8 6 6 5 5 5 3 1 0 1 4 6 6 6 5 4 6 10 11 9 6 6 6
36 39 44 46 44 36 29 25 24 23 22 24 25 25 23 17 12 11 13 13 13 13 11 9 9 7 4 2 2 2 4 6 7 6 6 5 6 9 11 11 12 11 11
39 44 49 53 49 41 33 27 24 25 27 28 30 30 27 23 19 15 14 15 17 18 16 15 14 12 9 7 7 6 5 6 7 7 7 7 7 9 12 14 18 19 17
40 46 54 56 50 43 36 31 30 31 31 32 33 32 30 26 22 19 15 16 18 17 16 17 17 16 14 13 14 12 8 6 6 7 9 9 11 14 15 16 19 21 19
38 46 56 59 52 44 38 35 35 35 34 34 35 34 31 27 24 21 19 19 20 18 17 19 18 16 15 14 15 15 13 11 10 10 11 12 15 17 16 16 16 15 15
37 43 54 60 53 44 39 36 35 36 35 35 37 36 32 28 26 24 22 22 25 23 21 22 20 14 12 12 13 13 13 15 16 12 12 13 15 15 15 15 13 11 10

GEFSSE_con_prob3kmehi_276.txt.gz
EHI
0 1 2 2 1 1 0 0 0 0 0 0 0 0 0 1 2 2 2 2 2 2 3 5 8 7 2 0 0 1 2 3 2 2 2 4 4 3 2 1 2 4 6
0 1 3 2 1 1 1 1 1 1 0 0 0 0 0 1 2 3 2 2 3 3 4 6 7 5 2 1 1 1 2 2 2 1 1 2 3 3 2 1 2 4 6
0 1 2 3 3 3 3 3 3 2 1 0 0 0 0 1 2 2 1 2 3 4 4 5 4 3 2 3 3 2 1 1 1 0 0 0 1 2 2 1 3 5 6
0 0 1 3 5 6 6 6 5 3 1 0 0 0 0 0 1 1 1 1 2 3 4 3 2 2 2 3 3 1 0 0 0 0 0 0 1 2 1 1 2 3 4
0 0 1 3 5 6 5 5 4 2 1 0 1 1 1 1 2 2 2 1 1 2 3 3 1 1 1 1 2 1 0 0 0 0 0 0 1 2 2 2 1 1 1
0 0 1 3 4 4 3 2 2 1 0 0 1 2 2 2 2 2 3 2 2 2 2 3 2 1 1 1 2 2 1 1 1 1 0 0 0 2 4 5 3 1 0
0 0 1 2 3 2 2 3 2 1 1 1 1 2 2 2 1 1 3 3 2 2 2 3 3 3 3 3 4 3 3 3 2 1 0 0 0 2 5 6 4 1 0
0 0 1 2 2 1 2 5 5 4 2 1 1 1 1 1 1 1 2 2 2 2 3 3 4 4 4 5 4 4 5 4 3 2 0 0 1 2 4 5 3 1 0
0 0 1 1 1 1 2 4 5 5 3 2 1 0 0 0 0 0 1 2 3 4 5 4 3 3 4 5 5 6 6 4 2 1 0 0 2 3 5 5 3 1 0
0 0 0 0 0 0 2 4 4 4 2 1 0 0 1 1 0 0 2 3 5 6 6 4 3 4 6 7 8 7 6 3 1 1 0 1 4 5 6 5 3 1 0
1 0 0 0 0 0 1 3 3 3 1 0 0 0 1 1 0 0 2 4 6 7 5 4 4 5 7 8 9 8 4 1 0 0 0 2 5 6 5 4 3 2 1
2 1 0 0 0 0 0 1 1 1 1 0 0 0 1 1 0 0 1 3 5 6 5 4 4 4 5 5 5 4 2 0 0 0 1 3 5 5 4 4 4 4 4
2 1 0 0 0 0 0 0 0 0 0 0 0 0 0 0 0 0 0 1 2 3 3 3 3 2 2 2 1 1 0 0 0 0 1 4 4 4 5 6 6 5 5
2 2 1 0 0 0 0 0 0 0 0 0 0 0 0 0 0 0 0 0 0 1 1 2 1 1 2 1 0 0 0 0 0 0 2 5 5 5 5 6 6 6 5
2 2 1 0 0 0 0 0 0 0 0 0 0 0 0 0 0 0 0 0 0 0 0 0 0 1 1 1 0 0 0 0 0 0 2 6 7 5 4 5 5 5 4
1 2 2 1 0 0 1 1 1 0 0 0 0 0 0 0 0 0 0 0 0 0 0 0 0 0 0 0 0 0 0 0 0 0 1 4 5 4 4 5 5 4 3
3 3 3 3 1 1 1 2 1 0 0 0 1 1 1 1 1 0 0 0 0 0 0 0 0 0 0 0 0 0 0 0 0 0 0 1 2 3 4 6 6 5 5
5 5 5 4 3 1 1 1 1 1 1 1 1 2 2 2 2 1 1 1 1 0 0 0 0 0 0 0 0 0 0 0 0 0 0 0 0 1 2 5 7 6 5
6 7 8 8 5 3 2 2 3 3 3 2 2 3 3 3 3 2 2 2 1 0 0 0 0 0 0 0 0 0 0 0 0 0 0 0 0 0 1 3 5 5 4
9 11 13 12 8 5 4 4 4 4 4 3 3 4 3 3 3 2 2 2 1 0 0 0 0 0 0 0 0 0 0 0 0 0 0 0 1 1 0 1 2 2 3
12 13 14 12 9 6 4 4 3 3 2 2 3 3 2 2 2 2 2 2 1 0 0 0 0 0 0 0 0 0 0 0 0 0 0 1 2 2 1 0 0 0 1
14 14 15 13 10 6 4 4 4 3 1 1 2 2 1 1 2 3 4 3 2 1 0 0 0 0 0 0 0 0 0 0 0 0 0 1 2 3 2 1 1 1 0
15 17 18 16 11 8 6 6 7 5 2 1 1 1 1 3 4 5 5 5 4 3 2 0 0 0 0 0 0 0 0 0 0 0 0 1 2 3 3 3 2 2 1
18 21 22 18 14 11 10 10 10 8 4 1 1 1 2 4 6 5 5 5 6 6 4 2 1 1 1 0 0 0 0 0 0 0 0 0 1 2 3 3 3 2 2
20 23 24 21 16 14 14 14 12 8 4 2 2 2 2 3 4 4 4 4 5 6 6 6 4 3 2 1 0 0 0 0 0 0 0 0 1 1 1 2 2 3 3
21 24 26 23 19 18 18 17 13 8 4 3 4 3 2 2 3 3 3 3 3 5 7 8 7 5 3 2 1 0 0 0 0 0 0 0 1 0 0 1 2 3 3

GEFSSE_con_prob3kmehi_282.txt.gz
EHI
0 0 0 1 0 0 0 0 1 2 3 3 2 1 1 2 3 2 1 1 2 2 1 0 0 1 2 1 1 2 2 1 1 2 3 1 1 2 2 2 1 1 1
0 0 1 1 1 0 0 0 0 1 2 3 2 1 1 2 3 2 1 0 1 1 0 0 0 0 1 0 1 2 3 2 1 2 3 2 1 2 2 1 1 1 1
0 0 1 2 1 0 0 0 0 0 1 2 3 2 1 1 2 1 0 0 0 0 0 0 0 0 0 0 0 1 3 3 3 3 2 1 1 2 2 2 2 1 1
0 0 0 1 1 0 0 0 0 0 0 1 2 2 1 0 0 0 0 0 0 0 0 0 0 0 1 1 1 2 4 5 5 3 1 0 1 2 2 1 1 1 0
0 0 0 0 0 0 0 0 0 0 0 1 2 2 1 0 0 0 0 0 0 0 0 0 1 2 3 3 3 5 6 5 4 2 0 0 0 1 1 0 0 0 0
0 0 0 0 1 1 1 0 0 0 0 0 1 1 1 1 0 1 2 2 2 1 1 2 3 4 5 5 6 6 6 5 2 0 0 0 0 0 0 0 0 0 1
0 0 0 0 1 1 1 0 1 1 1 0 0 1 2 1 0 2 4 4 3 3 3 3 5 5 5 5 6 6 5 4 2 0 0 0 0 0 0 1 0 0 1
0 0 0 0 0 1 1 2 2 2 2 1 0 2 2 1 1 2 4 4 4 4 4 5 5 4 4 4 4 4 4 4 2 1 0 0 0 0 0 0 0 0 1
0 0 0 0 0 1 2 3 3 3 2 1 0 1 2 1 1 1 2 3 4 5 6 6 5 3 3 3 3 4 4 3 2 1 0 0 0 0 0 0 0 0 0
0 0 0 0 0 1 2 3 3 2 1 0 0 0 1 1 0 0 0 1 3 4 5 5 5 3 2 3 4 4 3 2 1 1 0 0 0 0 0 0 0 0 0
0 0 0 0 0 0 1 2 2 1 0 0 0 0 0 0 0 0 0 1 2 3 3 3 3 3 3 3 4 4 2 1 0 0 0 0 0 0 0 0 0 0 0
0 0 0 0 0 0 0 1 1 1 0 0 0 0 0 0 0 0 0 0 1 1 1 1 2 3 3 3 3 2 0 0 0 0 0 0 0 0 1 1 1 0 0
0 0 0 0 0 0 0 0 0 0 0 0 0 0 0 0 0 0 0 0 0 0 0 0 0 1 1 1 1 0 0 0 0 0 0 0 0 1 2 2 2 1 0
0 0 0 0 0 0 0 0 0 0 0 0 0 0 0 0 0 0 0 0 0 0 0 0 0 0 0 0 0 0 0 0 0 0 0 0 0 2 3 3 2 1 0
0 0 0 0 0 0 0 0 0 0 0 0 0 0 0 0 0 0 0 0 0 0 0 0 0 0 0 0 0 0 0 0 0 0 0 0 0 1 2 2 1 0 0
0 0 0 0 0 0 0 0 0 0 0 0 0 0 0 0 0 0 0 0 0 0 0 0 0 0 0 0 0 0 0 0 0 0 0 0 0 1 2 1 0 0 0
0 0 0 0 0 0 0 0 0 0 0 0 0 0 0 0 0 0 0 0 0 0 0 0 0 0 0 0 0 0 0 0 0 0 0 0 0 0 1 1 0 0 0
1 1 0 0 0 0 0 0 0 0 0 0 0 0 0 0 0 0 0 0 0 0 0 0 0 0 0 0 0 0 0 0 0 0 0 0 0 0 0 0 1 1 1
3 3 1 1 0 1 1 1 0 0 0 0 0 0 0 0 0 0 0 0 0 0 0 0 0 0 0 0 0 0 0 0 0 0 0 0 0 0 0 1 2 2 1
6 5 3 2 1 2 2 2 1 0 0 0 0 0 0 0 0 0 0 0 0 0 0 0 0 0 0 0 0 0 0 0 0 0 0 0 0 0 0 1 1 1 0
6 5 3 2 1 2 3 2 1 0 0 0 0 0 0 0 0 0 0 0 0 0 0 0 0 0 0 0 0 0 0 0 0 0 0 0 0 1 1 1 1 0 0
3 3 1 1 1 2 3 2 1 0 0 0 0 0 0 0 0 1 1 0 0 0 0 0 0 0 0 0 0 0 0 0 0 0 0 0 1 2 2 2 1 0 0
1 1 1 0 0 1 2 2 1 1 1 0 0 0 0 0 1 2 3 2 1 1 1 2 2 1 0 0 0 0 0 0 0 0 0 0 1 2 3 3 2 1 0
0 0 1 0 0 1 2 2 2 2 2 1 1 1 1 1 1 3 5 5 4 4 5 5 5 3 2 1 1 1 1 1 0 0 0 0 0 1 3 3 3 2 1
0 0 0 0 0 1 2 3 3 3 3 3 2 2 2 2 2 3 5 6 5 6 6 6 6 4 3 3 3 3 3 3 2 2 1 0 0 1 2 3 2 1 0
0 0 0 0 0 1 2 3 3 3 3 3 3 3 3 2 1 2 4 4 4 5 5 6 5 5 4 5 5 4 4 4 4 3 2 1 0 0 1 2 1 0 0

GEFSSE_con_prob3kmehi_288.txt.gz
EHI
0 0 0 0 1 2 2 1 0 0 0 0 0 0 0 0 0 0 0 0 1 2 3 3 3 3 2 1 1 2 4 5 6 5 3 2 3 4 4 2 1 1 0
0 0 0 0 1 2 2 1 0 0 0 0 0 0 0 0 0 0 0 0 0 1 3 3 4 3 2 1 1 2 3 4 4 3 2 1 2 3 3 2 2 2 1
0 0 0 0 0 1 1 1 0 0 0 0 0 0 0 0 0 0 0 0 0 1 2 4 4 4 2 1 0 1 1 1 1 1 0 0 1 1 1 2 3 3 3
0 0 1 1 1 2 1 1 0 0 0 0 0 0 0 0 0 0 0 0 0 1 2 3 3 3 2 1 0 0 0 0 0 0 0 0 0 0 0 1 2 3 3
0 1 2 3 3 4 3 1 0 0 0 0 0 0 0 0 0 0 1 1 0 0 1 1 2 2 1 0 1 1 0 0 0 0 1 1 1 0 0 0 1 2 2
0 1 2 3 5 5 4 3 1 1 1 0 0 0 0 0 1 1 2 2 1 1 1 1 3 3 1 1 3 2 1 0 0 0 1 1 1 0 0 0 0 1 1
0 0 1 3 4 5 4 3 2 2 2 1 0 0 1 1 1 2 2 3 4 3 3 3 4 4 3 3 4 4 2 1 0 0 1 1 0 0 0 0 0 1 1
0 0 1 2 3 3 3 2 1 1 2 1 0 1 3 3 2 1 1 3 5 5 4 4 4 5 4 4 4 5 4 2 1 0 0 0 0 0 0 0 1 1 1
0 0 0 1 1 1 2 1 0 0 1 1 0 1 3 3 2 1 1 2 3 3 3 3 3 5 5 4 4 4 5 4 1 0 0 0 0 0 0 0 1 2 2
0 0 0 0 0 0 0 0 0 0 1 0 0 1 2 2 1 1 1 1 1 1 1 1 3 5 4 4 3 3 3 2 1 0 0 0 0 0 0 0 0 1 1
0 0 0 0 0 0 0 0 0 0 1 1 0 0 1 2 2 1 0 0 0 0 0 1 4 4 2 2 2 2 1 1 0 0 0 0 0 0 0 0 0 0 0
0 0 0 0 0 0 0 0 0 1 2 2 0 1 2 3 2 1 1 1 1 0 0 1 4 3 1 0 1 1 0 0 0 0 0 0 0 0 0 0 0 0 0
0 0 0 0 0 0 0 0 0 1 2 1 0 1 2 3 2 1 2 3 2 1 0 1 2 2 0 0 0 0 0 0 0 0 0 1 0 0 0 0 0 0 0
0 0 0 0 0 0 0 0 0 1 2 1 0 0 1 2 1 2 4 5 4 1 0 0 1 0 0 0 0 0 0 0 0 0 0 0 0 0 0 0 0 0 0
0 0 0 0 0 0 0 0 0 1 1 1 0 0 1 2 2 2 3 4 4 1 0 0 0 0 0 0 0 0 0 0 0 0 0 0 0 0 0 0 0 0 0
0 0 0 0 0 0 0 0 0 0 1 1 1 1 2 4 4 3 2 2 1 1 0 0 0 0 0 0 0 0 0 0 0 0 0 0 0 0 0 0 0 0 0
0 0 0 0 0 0 0 1 1 1 0 0 1 1 2 3 3 3 2 1 1 2 1 1 0 0 0 0 0 0 0 0 0 0 0 0 0 0 0 0 0 0 0
1 1 0 0 1 2 2 1 2 2 1 0 0 1 1 1 2 3 3 3 2 2 2 1 0 0 0 0 0 1 1 0 0 0 0 0 0 0 1 1 0 0 0
0 1 1 3 5 6 5 3 2 2 1 0 0 0 1 1 2 3 3 3 2 2 2 1 0 0 0 0 0 1 1 0 0 0 0 1 2 2 2 3 2 1 0
0 1 3 5 7 8 7 5 3 2 1 1 1 0 1 2 3 4 4 3 1 0 0 0 0 0 0 0 0 1 1 0 0 0 0 2 4 5 4 5 4 3 3
1 2 4 6 7 7 6 5 4 3 2 2 1 1 2 3 4 4 4 3 2 0 0 1 2 1 0 0 0 0 0 0 0 0 0 1 3 4 5 6 5 5 6
4 3 4 5 6 6 4 3 3 3 3 1 1 1 3 4 4 4 5 4 2 1 2 5 6 4 1 1 1 0 0 0 1 0 0 1 2 4 6 6 6 6 6
6 5 5 6 8 8 7 5 5 5 3 2 1 2 4 5 5 5 6 6 4 3 6 10 11 8 4 4 5 4 3 2 1 0 0 1 3 6 6 6 6 6 7
6 6 7 9 11 12 11 10 9 8 5 4 3 4 5 6 6 6 6 8 8 8 10 13 14 13 9 6 7 8 7 6 4 2 1 1 3 6 6 6 6 7 9
5 5 8 12 15 15 14 14 14 12 8 6 6 7 7 8 8 7 7 10 11 11 13 14 15 15 12 8 7 8 9 8 7 5 2 1 2 4 6 7 7 7 8
4 4 7 12 16 16 15 16 16 13 10 9 9 9 9 10 10 8 8 10 11 12 14 16 17 16 13 10 7 7 8 8 7 6 4 2 1 3 6 7 7 7 7